This is the latest recevied weather packets stored in our database for station/object KA0EGE. If no packets are shown the sender has not sent any weather packets the latest 10 day(s).
| Time | Temp. | Humidity | Pressure | Rain* | Wind** | Luminosity | Snow |
|---|---|---|---|---|---|---|---|
| 1778025435 | 23.33° C | 74% | 1016.9 hPa | 0 mm | - | 24 W/m² | - |
| 1778025133 | 23.33° C | 73% | 1016.9 hPa | 0 mm | - | 27 W/m² | - |
| 1778024829 | 23.33° C | 72% | 1017.3 hPa | 0 mm | - | 28 W/m² | - |
| 1778024526 | 23.33° C | 72% | 1017 hPa | 0 mm | - | 30 W/m² | - |
| 1778024223 | 23.89° C | 71% | 1016.9 hPa | 0 mm | - | 34 W/m² | - |
| 1778023921 | 23.89° C | 71% | 1016.7 hPa | 0 mm | - | 48 W/m² | - |
| 1778023618 | 23.89° C | 71% | 1016.9 hPa | 0 mm | - | 70 W/m² | - |
| 1778023315 | 23.89° C | 72% | 1017.2 hPa | 0 mm | - | 110 W/m² | - |
| 1778023012 | 23.89° C | 71% | 1017.4 hPa | 0 mm | - | 104 W/m² | - |
| 1778022711 | 23.89° C | 71% | 1017.3 hPa | 0 mm | - | 84 W/m² | - |
| 1778022409 | 24.44° C | 70% | 1017.5 hPa | 0 mm | - | 103 W/m² | - |
| 1778022105 | 24.44° C | 71% | 1017.2 hPa | 0 mm | - | 158 W/m² | - |
| 1778021801 | 24.44° C | 71% | 1017 hPa | 0 mm | - | 173 W/m² | - |
| 1778021498 | 25° C | 69% | 1017.2 hPa | 0 mm | - | 121 W/m² | - |
| 1778021194 | 25° C | 69% | 1016.8 hPa | 0 mm | - | 82 W/m² | - |
| 1778020892 | 24.44° C | 70% | 1016.8 hPa | 0 mm | - | 96 W/m² | - |
| 1778020589 | 24.44° C | 70% | 1016.7 hPa | 0 mm | - | 93 W/m² | - |
| 1778020285 | 25° C | 69% | 1016.8 hPa | 0 mm | - | 91 W/m² | - |
| 1778019981 | 25° C | 68% | 1016.9 hPa | 0 mm | - | 297 W/m² | - |
| 1778019678 | 25.56° C | 68% | 1016.9 hPa | 0 mm | - | 330 W/m² | - |
| 1778019375 | 25° C | 68% | 1016.9 hPa | 0 mm | - | 119 W/m² | - |
| 1778019071 | 25.56° C | 68% | 1016.9 hPa | 0 mm | - | 158 W/m² | - |
| 1778018769 | 25.56° C | 67% | 1017 hPa | 0 mm | - | 353 W/m² | - |
| 1778018467 | 25.56° C | 68% | 1017.2 hPa | 0 mm | - | 381 W/m² | - |
| 1778018164 | 25.56° C | 68% | 1017 hPa | 0 mm | - | 251 W/m² | - |
* Rain latest hour (hover to see other rain measurements)
** Current wind speed in m/s (hover to see current wind gust speed)